Change the Weather History Date:

Tuesday, October 2, 2012

  Actual Average Record
Temperature  
Mean Temperature 60 °F 50 °F  
Max Temperature 80 °F 62 °F 83 °F (1997)
Min Temperature 39 °F 37 °F 19 °F (1974)
Degree Days  
Heating Degree Days 5 16  
Month to date heating degree days 13 31  
Since 1 July heating degree days 294 382  
Cooling Degree Days 0 0  
Month to date cooling degree days 0 0  
Year to date cooling degree days 572 378  
Growing Degree Days 10 (Base 50)    
Moisture  
Dew Point 32 °F    
Average Humidity 40    
Maximum Humidity 64    
Minimum Humidity 16    
Precipitation  
Precipitation 0.00 in 0.07 in 0.62 in (1971)
Month to date precipitation 0.00 0.14  
Year to date precipitation 13.78 17.42  
Snow  
Snow 0.00 in 0.00 in 2.70 in (1950)
Month to date snowfall 0.0 0.0  
Since 1 July snowfall 0.0 T  
Since 1 September snowfall 0.0 T  
Snow Depth 0.00 in    
Sea Level Pressure  
Sea Level Pressure 29.73 in    
Wind  
Wind Speed 15 mph (SSW)    
Max Wind Speed 38 mph    
Max Gust Speed 48 mph    
Visibility 10 miles    
Events      
T = Trace of Precipitation, MM = Missing Value Source: NWS Daily Summary

Daily Weather History Graph

Daily Weather History Graph

Search for Another Location

Airport or City:

Trip Planner

Search our weather history database for the weather conditions in past years. The results will help you decide how hot, cold, wet, or windy it might be!

Date:

Astronomy

Oct. 02, 2012 Rise Set
Actual Time 7:30 AM CDT 7:04 PM CDT
Civil Twilight 6:59 AM CDT 7:35 PM CDT
Nautical Twilight 6:23 AM CDT 8:11 PM CDT
Astronomical Twilight 5:46 AM CDT 8:48 PM CDT
Moon 8:02 PM CDT (10/2) 10:13 AM CDT (10/2)
Length of Visible Light 12h 36m
Length of Day
11h 34m
Waning Gibbous, 94% of the Moon is Illuminated
Oct 2
Waning Gibbous
Oct 8
Last Quarter
Oct 15
New
Oct 21
First Quarter
Oct 29
Full

Hourly Weather History & Observations

Time (CDT) Temp. Windchill Dew Point Humidity Pressure Visibility Wind Dir Wind Speed Gust Speed Precip Events Conditions
12:53 AM 43.0 °F 40.3 °F 28.0 °F 56% 29.90 in 10.0 mi SSW 4.6 mph - N/A   Scattered Clouds
1:53 AM 44.1 °F 39.0 °F 28.9 °F 55% 29.88 in 10.0 mi South 9.2 mph - N/A   Scattered Clouds
2:53 AM 41.0 °F 37.1 °F 28.9 °F 62% 29.86 in 10.0 mi SSE 5.8 mph - N/A   Clear
3:53 AM 39.9 °F 35.8 °F 28.0 °F 63% 29.85 in 10.0 mi SSE 5.8 mph - N/A   Scattered Clouds
4:53 AM 42.1 °F 38.4 °F 28.9 °F 60% 29.84 in 10.0 mi SSE 5.8 mph - N/A   Scattered Clouds
5:53 AM 43.0 °F 37.2 °F 28.0 °F 56% 29.81 in 10.0 mi South 10.4 mph - N/A   Scattered Clouds
6:53 AM 42.1 °F 36.1 °F 28.0 °F 58% 29.80 in 10.0 mi South 10.4 mph - N/A   Scattered Clouds
7:53 AM 44.6 °F 37.8 °F 28.4 °F 53% 29.78 in 10.0 mi South 15.0 mph - N/A   Scattered Clouds
8:53 AM 50.0 °F - 28.9 °F 44% 29.76 in 10.0 mi South 18.4 mph 24.2 mph N/A   Partly Cloudy
9:53 AM 55.0 °F - 28.9 °F 37% 29.73 in 10.0 mi South 21.9 mph 31.1 mph N/A   Partly Cloudy
10:53 AM 63.0 °F - 28.9 °F 28% 29.68 in 10.0 mi SSW 23.0 mph 33.4 mph N/A   Clear
11:53 AM 69.1 °F - 28.0 °F 22% 29.66 in 10.0 mi SSW 35.7 mph 43.7 mph N/A   Clear
12:53 PM 72.0 °F - 27.0 °F 19% 29.63 in 6.0 mi South 36.8 mph 46.0 mph N/A   Haze
1:53 PM 75.2 °F - 26.6 °F 17% 29.62 in 10.0 mi SSW 27.6 mph 39.1 mph N/A   Partly Cloudy
2:53 PM 77.0 °F - 30.0 °F 18% 29.61 in 10.0 mi SSW 25.3 mph 32.2 mph N/A   Partly Cloudy
3:53 PM 80.1 °F - 34.0 °F 19% 29.60 in 10.0 mi WSW 18.4 mph 26.5 mph N/A   Partly Cloudy
4:53 PM 79.0 °F - 35.1 °F 20% 29.60 in 10.0 mi WSW 12.7 mph 21.9 mph N/A   Partly Cloudy
5:53 PM 75.0 °F - 39.0 °F 27% 29.64 in 10.0 mi NW 17.3 mph 23.0 mph N/A   Partly Cloudy
6:53 PM 69.8 °F - 39.2 °F 33% 29.66 in 10.0 mi WNW 11.5 mph - N/A   Partly Cloudy
7:53 PM 62.1 °F - 39.0 °F 43% 29.70 in 10.0 mi WNW 8.1 mph - N/A   Partly Cloudy
8:53 PM 62.6 °F - 39.2 °F 42% 29.70 in 10.0 mi WNW 8.1 mph - N/A   Partly Cloudy
9:53 PM 55.0 °F - 37.9 °F 53% 29.73 in 10.0 mi WSW 6.9 mph - N/A   Clear
10:53 PM 55.0 °F - 37.9 °F 53% 29.75 in 10.0 mi WSW 4.6 mph - N/A   Partly Cloudy
11:53 PM 52.0 °F - 37.0 °F 57% 29.75 in 10.0 mi West 8.1 mph - N/A   Clear